Temperature
12 12 12 12 12 11 11 11 11 11 12 12 12 12 11 11 10 9 9 9 9 9 9 9 9 9 9 9 9 9 9 10 10 10 10 10 10 11 11 11 11 11 11
12 12 12 12 11 11 11 11 11 11 11 11 11 11 10 9 9 9 8 8 8 8 8 8 9 9 9 9 9 9 9 9 10 10 10 10 10 10 10 10 10 11 11
12 12 12 12 11 11 11 11 11 11 11 10 10 10 9 9 8 8 8 7 8 8 8 8 8 8 8 9 9 9 9 9 9 9 10 10 10 10 10 10 10 10 10
12 12 12 12 12 11 11 11 11 10 10 10 9 8 8 8 7 7 7 7 7 7 7 8 8 8 8 8 8 8 8 8 9 9 9 9 8 8 8 8 9 9 9
12 12 12 12 11 11 11 11 11 10 10 9 9 8 8 8 7 7 6 6 7 7 7 7 7 7 7 7 7 7 7 7 7 7 7 7 7 6 6 6 7 7 7
12 12 12 11 11 11 11 11 10 10 9 9 9 8 8 7 6 6 5 6 6 6 6 6 6 6 7 7 7 7 7 6 6 6 6 5 5 4 4 4 4 5 5
12 12 11 11 11 11 11 10 10 9 9 8 8 7 7 7 6 6 6 5 5 6 6 6 6 6 6 6 6 6 6 6 6 5 5 4 3 3 3 2 3 3 3
12 11 11 11 11 11 10 10 9 9 8 8 7 6 6 6 5 6 6 6 5 5 5 5 5 5 5 5 5 5 5 5 5 5 4 3 2 1 1 1 2 2 2
11 11 11 11 11 10 10 9 9 8 7 6 6 5 5 6 4 4 4 5 4 4 4 5 5 5 4 4 4 4 4 4 4 3 2 1 0 0 1 1 1 1 2
11 11 11 11 10 10 10 9 8 7 6 5 5 5 4 3 2 3 3 2 2 2 2 2 3 4 4 3 3 3 2 2 1 -0 -1 -1 -1 -1 -0 0 0 1 1
10 10 10 10 10 10 9 8 8 7 6 5 4 3 3 2 1 1 2 2 1 0 -0 -0 0 1 1 0 -0 -1 -1 -1 -2 -3 -3 -3 -2 -2 -1 -1 -1 -0 0
10 10 10 10 10 9 8 8 7 6 5 4 4 3 2 1 1 0 0 0 0 -0 -1 -1 -1 -2 -2 -2 -2 -2 -2 -2 -3 -4 -4 -4 -3 -3 -3 -2 -2 -2 -1
10 10 10 9 9 8 7 7 6 5 4 4 3 2 2 1 1 -0 -1 -1 -2 -1 -1 -2 -2 -3 -3 -3 -4 -3 -3 -3 -4 -5 -5 -5 -4 -4 -4 -4 -4 -3 -3
10 10 9 9 8 7 7 6 5 4 4 3 2 2 1 1 0 -1 -2 -3 -3 -2 -1 -1 -2 -3 -4 -5 -5 -6 -6 -6 -6 -6 -6 -6 -6 -5 -5 -5 -5 -4 -4
10 9 9 8 7 7 6 5 4 3 3 2 2 1 1 0 -0 -1 -2 -3 -4 -3 -2 -3 -3 -4 -5 -5 -6 -7 -7 -7 -7 -7 -7 -7 -6 -6 -6 -6 -6 -5 -5
9 9 8 7 6 6 5 4 3 2 2 2 1 1 -0 -1 -1 -2 -3 -4 -5 -5 -5 -4 -4 -5 -5 -6 -6 -7 -7 -7 -7 -7 -7 -7 -7 -7 -7 -7 -6 -6 -6
8 8 7 6 5 4 4 3 2 2 2 1 0 -0 -1 -2 -2 -3 -4 -5 -5 -6 -6 -5 -5 -6 -6 -7 -7 -7 -7 -7 -7 -7 -7 -7 -7 -7 -7 -7 -7 -7 -6
8 7 6 5 4 3 3 2 2 1 1 0 -1 -1 -2 -2 -3 -4 -5 -6 -6 -6 -7 -7 -7 -7 -7 -7 -7 -7 -7 -7 -7 -7 -8 -8 -8 -8 -7 -7 -7 -7 -7
7 6 5 4 3 2 2 1 1 1 0 -1 -1 -2 -2 -3 -4 -5 -6 -7 -7 -7 -8 -8 -7 -7 -7 -7 -7 -7 -7 -7 -8 -8 -8 -8 -8 -8 -8 -7 -7 -7 -7
5 5 4 3 2 2 1 1 0 -0 -1 -2 -2 -2 -3 -4 -5 -6 -7 -8 -8 -8 -8 -8 -8 -8 -7 -7 -7 -8 -8 -8 -8 -8 -8 -8 -8 -8 -8 -8 -8 -8 -8
4 3 3 2 1 1 0 -0 -1 -1 -2 -2 -3 -3 -4 -5 -6 -7 -8 -8 -8 -8 -8 -8 -8 -8 -8 -8 -8 -8 -8 -9 -9 -8 -8 -8 -8 -8 -8 -8 -8 -8 -8
3 2 2 1 1 0 -0 -1 -1 -2 -3 -3 -4 -4 -6 -6 -7 -8 -8 -9 -9 -9 -8 -8 -8 -8 -8 -8 -8 -9 -9 -9 -9 -8 -8 -8 -8 -8 -8 -8 -8 -8 -8
2 1 1 0 -0 -0 -1 -1 -2 -2 -3 -4 -5 -6 -7 -7 -8 -9 -9 -9 -9 -9 -8 -9 -9 -9 -9 -9 -9 -9 -9 -9 -9 -9 -9 -9 -8 -8 -8 -8 -8 -8 -7
1 0 -0 -0 -1 -1 -1 -2 -2 -3 -4 -5 -6 -7 -8 -8 -9 -9 -9 -9 -9 -9 -9 -9 -9 -10 -10 -9 -9 -9 -10 -10 -10 -9 -9 -9 -9 -9 -8 -8 -7 -6 -6
-0 -0 -1 -1 -1 -2 -2 -2 -3 -4 -5 -6 -7 -8 -9 -9 -9 -9 -9 -9 -9 -9 -9 -10 -10 -10 -9 -9 -10 -10 -10 -10 -10 -9 -9 -10 -9 -9 -9 -8 -6 -6 -6
-1 -1 -1 -2 -2 -2 -3 -3 -4 -6 -7 -8 -8 -8 -9 -9 -9 -9 -9 -9 -10 -10 -10 -10 -10 -9 -9 -9 -9 -10 -10 -10 -11 -10 -9 -10 -10 -10 -10 -8 -7 -6 -5
Wind_Speed
6 5 5 5 5 5 4 3 3 4 4 4 4 4 3 2 1 3 6 13 13 13 13 13 13 13 13 13 13 13 14 15 15 15 15 15 15 15 14 14 14 14 14
7 6 6 6 5 5 5 4 4 3 3 4 3 3 2 1 1 2 4 8 13 13 14 14 14 14 14 14 14 14 15 16 16 16 16 16 16 16 16 16 16 16 17
10 8 7 6 6 6 6 4 4 3 3 3 2 2 1 1 2 3 3 4 6 11 13 14 14 14 14 14 15 15 16 16 17 17 17 17 17 17 17 18 18 19 19
13 10 7 7 7 6 5 4 3 3 3 4 4 2 2 3 3 3 3 3 3 4 7 11 12 13 13 14 15 16 17 18 18 18 18 18 17 18 18 19 19 20 21
15 11 8 8 8 6 5 4 4 4 4 5 5 4 4 4 4 4 3 1 2 3 5 6 9 10 12 14 16 17 18 18 19 19 19 19 19 19 19 20 21 22 22
15 13 9 9 8 6 5 4 5 5 5 5 6 5 2 2 4 4 3 3 2 3 5 8 10 11 12 15 17 17 18 19 20 20 21 21 20 21 21 22 23 24 25
15 13 9 8 7 6 6 5 4 4 5 6 5 4 1 2 3 4 3 4 4 5 7 10 12 12 12 16 15 16 18 19 20 21 22 22 22 23 24 24 25 26 27
14 12 10 8 8 7 7 6 4 3 4 5 5 4 4 2 1 3 4 4 5 6 8 11 13 13 14 13 13 17 17 19 21 22 23 24 25 25 26 27 28 29 30
11 12 12 9 8 7 7 6 5 3 3 3 4 4 3 4 6 5 5 6 7 7 9 11 13 15 14 12 13 14 17 20 22 23 25 26 27 28 29 30 31 31 31
11 12 12 11 9 8 8 6 5 4 2 2 1 2 3 4 4 6 6 6 8 9 11 10 12 15 13 12 14 17 17 20 23 26 28 29 30 30 31 32 32 33 33
11 12 12 11 9 8 8 7 5 3 1 1 2 3 3 4 6 5 9 10 9 9 9 11 11 12 12 13 14 15 18 22 26 28 29 30 30 31 32 33 34 34 34
9 11 11 10 9 8 7 6 5 3 1 1 2 3 5 5 6 6 9 13 13 11 13 10 9 9 11 14 15 17 22 26 28 28 29 30 32 33 34 34 35 35 36
10 11 10 9 8 8 7 6 4 3 2 2 3 4 5 6 7 8 10 13 15 14 11 8 8 10 12 13 15 20 25 28 29 30 32 33 34 34 34 35 35 36 36
11 12 11 10 10 9 7 5 4 3 2 3 4 5 6 6 6 8 9 12 14 12 11 14 11 9 10 13 18 24 23 26 29 31 33 35 35 35 35 35 36 35 35
12 13 11 10 9 8 6 4 2 2 2 3 4 6 6 6 7 8 8 9 10 14 16 14 9 10 14 17 20 21 23 26 30 32 34 35 35 35 35 36 36 35 35
13 13 11 10 9 7 5 3 2 1 3 4 4 6 7 7 7 8 9 9 11 14 16 12 15 16 16 16 22 23 23 28 30 30 31 33 34 35 36 37 36 36 36
13 12 11 9 7 5 4 2 1 2 4 5 5 7 8 9 8 8 9 10 11 13 17 18 15 16 19 20 19 20 21 22 22 28 30 33 34 35 35 36 36 35 35
12 11 10 8 6 4 3 1 2 3 5 6 7 8 9 8 10 10 9 11 12 13 16 21 18 17 20 20 20 20 17 19 20 26 30 32 33 34 34 34 34 35 35
12 10 9 7 5 3 2 1 3 5 6 7 8 9 10 10 11 10 12 12 12 13 15 18 20 18 17 17 19 19 20 18 18 22 26 28 30 32 33 34 34 34 34
11 9 8 6 4 2 1 2 5 7 8 9 9 9 10 11 12 13 13 14 14 15 16 17 18 17 17 19 18 18 17 16 17 17 21 23 27 30 31 32 32 32 33
10 8 7 5 2 1 1 4 6 8 9 10 10 10 11 13 16 15 13 15 16 16 16 16 17 18 18 17 17 17 17 18 19 17 18 18 18 18 20 24 27 29 30
9 7 5 3 1 1 3 7 8 9 9 10 11 11 12 13 15 19 21 21 21 19 18 17 17 18 21 20 17 17 18 19 19 15 17 19 18 19 18 17 25 31 32
7 6 4 2 1 2 5 8 9 10 10 10 11 12 11 12 17 15 18 21 22 24 23 20 20 21 21 19 20 21 20 21 21 18 18 20 19 19 18 19 29 32 33
5 4 2 1 2 3 6 9 11 11 10 11 12 13 14 15 15 17 19 19 19 18 20 17 18 19 19 20 20 20 21 20 20 17 16 19 19 19 18 18 27 31 32
4 2 1 1 3 4 6 10 12 10 9 12 12 13 15 15 19 22 20 19 19 18 18 20 22 24 27 28 22 15 16 16 18 17 15 14 16 17 18 19 20 25 26
3 2 1 2 4 6 7 11 13 9 10 11 12 13 16 17 21 24 19 18 19 18 17 18 19 19 19 19 20 15 13 14 15 12 11 10 14 13 11 12 13 15 18
Wind_Direction
164 148 127 109 105 108 113 95 68 53 34 25 18 359 351 0 56 97 86 60 57 54 45 35 26 18 12 7 3 360 356 351 347 344 341 338 336 334 331 327 323 319 315
154 138 123 114 112 111 99 87 70 55 38 24 15 6 350 348 114 119 108 82 63 55 46 35 24 13 4 357 351 347 343 339 335 331 328 325 323 322 320 317 313 310 306
149 137 130 125 122 118 109 93 78 55 40 21 6 356 316 260 189 145 117 90 78 63 49 35 22 10 359 350 343 338 333 329 325 322 318 315 313 312 311 309 307 304 301
148 139 134 129 129 122 111 95 70 45 26 1 344 330 274 226 211 174 144 101 62 42 43 29 14 4 352 341 334 329 325 321 317 314 310 307 305 303 302 302 302 300 297
145 138 132 133 134 124 112 98 67 34 15 358 338 317 294 240 206 199 188 141 54 12 353 359 351 347 339 332 327 322 318 315 312 308 304 300 298 297 297 296 295 294 292
142 133 131 137 135 127 117 104 84 54 22 350 328 324 320 233 219 218 231 244 264 308 326 335 334 331 324 322 322 320 317 314 311 307 303 298 295 294 293 293 292 290 288
140 135 135 137 137 124 115 104 90 62 32 358 337 331 261 200 229 220 248 277 269 285 301 322 329 325 319 320 319 320 318 316 312 309 305 301 296 293 292 291 290 288 285
139 138 140 137 131 122 110 97 86 71 47 20 357 335 326 238 154 226 275 278 288 291 305 319 321 317 315 315 314 316 316 316 314 310 306 302 298 295 292 290 289 287 284
138 140 137 134 130 122 111 100 89 71 56 43 18 356 328 310 313 281 279 292 295 302 310 314 310 312 310 308 311 313 314 314 312 309 307 304 300 296 292 290 288 286 284
138 136 133 131 125 118 116 109 97 87 54 29 27 349 312 305 294 301 282 277 288 296 300 303 307 306 302 307 308 305 309 311 311 309 306 302 299 295 293 290 288 286 284
136 135 133 130 123 119 118 118 115 107 82 350 319 306 289 278 270 283 297 304 302 296 299 298 296 295 298 306 307 304 309 309 308 305 302 300 298 296 293 292 290 288 286
139 137 134 129 125 124 125 127 128 133 146 230 279 285 293 294 297 288 292 301 305 305 303 294 288 291 299 307 304 307 309 308 305 303 301 299 297 296 294 293 291 290 288
148 145 140 134 129 128 130 136 142 155 187 243 271 282 282 280 288 286 288 297 300 301 295 284 281 290 297 300 303 308 306 303 302 301 300 299 298 298 296 295 292 290 288
145 143 139 134 132 133 137 144 154 174 213 255 272 283 286 283 284 285 290 299 302 298 293 296 303 298 295 295 296 299 296 295 296 297 297 297 297 297 296 294 291 289 287
138 139 138 135 134 136 142 156 169 189 237 267 284 286 286 288 287 286 286 286 291 299 302 303 299 299 300 298 296 294 293 293 294 294 293 294 294 294 293 292 291 289 287
137 139 138 136 137 141 149 160 177 212 268 285 293 292 294 293 293 289 286 285 282 286 290 293 299 300 303 297 294 294 293 293 291 291 292 292 292 292 292 291 289 288 286
139 139 138 138 141 145 151 167 208 257 284 291 290 293 296 299 296 294 292 287 285 285 288 294 298 302 301 299 299 298 297 295 294 293 293 293 293 293 291 290 288 287 285
135 135 135 136 137 141 153 192 256 280 290 293 295 296 299 302 297 296 294 291 289 288 290 296 299 301 300 301 300 300 300 297 294 294 294 294 293 291 290 289 287 286 284
131 131 132 132 134 141 166 253 286 292 291 291 292 294 299 302 300 299 298 294 292 291 290 292 296 300 300 301 303 302 300 299 297 297 296 294 292 290 289 288 287 286 285
129 129 127 127 130 144 214 280 292 293 291 289 286 288 294 297 299 300 297 295 294 294 293 293 294 298 301 304 305 305 305 303 301 300 295 292 291 291 289 288 286 285 283
125 127 129 129 133 180 287 304 301 295 293 292 289 289 291 294 295 296 296 297 299 297 294 293 295 300 302 306 306 306 304 304 300 300 299 297 297 293 291 288 285 283 281
128 132 133 135 150 287 311 306 309 300 295 293 295 296 296 294 296 299 299 299 295 292 293 295 297 298 299 301 305 304 303 302 302 304 302 299 298 294 292 289 287 287 285
136 138 137 153 256 304 309 312 310 303 298 296 297 299 301 301 304 302 300 297 293 290 289 292 294 293 296 300 301 300 299 299 297 300 300 296 297 294 294 290 291 289 288
139 142 148 208 285 300 313 314 314 305 299 297 299 301 302 304 305 306 304 300 297 295 293 291 289 290 290 292 294 296 297 295 292 291 292 292 296 296 297 294 293 289 287
140 148 179 263 294 305 316 316 319 310 301 302 303 302 303 302 303 306 306 304 303 300 298 295 290 287 288 292 294 294 292 293 295 298 298 290 293 300 297 292 288 288 288
141 166 226 282 302 311 317 319 322 311 309 309 306 305 304 305 308 309 309 307 304 305 306 302 297 295 294 292 291 284 286 288 292 297 295 293 297 306 302 289 290 295 294
Height
1521 1522 1523 1523 1524 1524 1523 1522 1521 1520 1519 1517 1516 1515 1513 1512 1510 1509 1507 1506 1505 1504 1503 1502 1501 1499 1498 1497 1495 1494 1493 1492 1491 1490 1489 1489 1488 1488 1487 1487 1487 1487 1487
1519 1520 1521 1522 1522 1522 1522 1521 1519 1518 1516 1515 1513 1511 1510 1509 1507 1506 1505 1504 1503 1502 1500 1499 1498 1497 1495 1494 1492 1490 1489 1488 1487 1486 1485 1484 1484 1483 1482 1482 1482 1481 1481
1517 1518 1519 1520 1520 1520 1520 1519 1517 1516 1514 1512 1510 1508 1507 1506 1505 1504 1503 1502 1501 1499 1498 1497 1496 1494 1492 1490 1488 1486 1484 1483 1481 1480 1479 1478 1477 1477 1476 1476 1475 1474 1474
1515 1516 1517 1518 1518 1518 1518 1517 1516 1514 1512 1510 1508 1506 1504 1503 1502 1501 1501 1500 1498 1497 1495 1494 1493 1491 1489 1486 1484 1482 1480 1478 1476 1475 1473 1472 1471 1470 1469 1468 1467 1467 1466
1512 1514 1515 1516 1516 1516 1516 1515 1514 1513 1511 1508 1506 1504 1502 1501 1499 1498 1498 1497 1496 1494 1493 1490 1489 1487 1484 1482 1479 1477 1474 1472 1470 1468 1467 1466 1464 1463 1462 1461 1459 1459 1458
1509 1511 1512 1514 1514 1514 1514 1513 1512 1510 1509 1507 1505 1503 1500 1498 1497 1496 1496 1494 1492 1491 1489 1487 1485 1482 1479 1477 1474 1471 1469 1466 1464 1462 1460 1459 1457 1456 1454 1453 1451 1451 1450
1505 1508 1510 1511 1512 1512 1512 1511 1510 1508 1506 1505 1503 1501 1499 1496 1495 1494 1493 1492 1490 1488 1486 1484 1481 1478 1475 1472 1469 1466 1463 1460 1458 1455 1454 1452 1450 1448 1446 1445 1443 1442 1441
1502 1505 1507 1509 1510 1510 1510 1509 1508 1506 1504 1503 1502 1501 1500 1499 1495 1493 1491 1490 1488 1485 1483 1480 1477 1473 1470 1466 1463 1460 1456 1453 1451 1448 1446 1444 1442 1440 1438 1436 1435 1433 1432
1499 1502 1505 1506 1507 1508 1507 1507 1506 1504 1503 1501 1500 1501 1500 1498 1494 1490 1488 1486 1483 1480 1477 1474 1471 1467 1463 1459 1455 1452 1449 1446 1443 1440 1438 1436 1434 1432 1430 1428 1426 1424 1423
1497 1500 1502 1504 1505 1505 1505 1504 1503 1502 1501 1500 1498 1497 1497 1495 1492 1487 1484 1481 1477 1474 1470 1467 1464 1461 1457 1452 1448 1445 1441 1437 1434 1432 1429 1427 1424 1423 1420 1418 1416 1415 1413
1494 1497 1500 1501 1502 1503 1502 1502 1501 1500 1499 1498 1496 1495 1493 1490 1488 1485 1479 1476 1473 1469 1465 1460 1456 1453 1449 1445 1441 1437 1432 1429 1425 1422 1420 1418 1415 1413 1411 1408 1406 1404 1402
1490 1494 1497 1499 1500 1500 1499 1499 1498 1497 1496 1494 1493 1491 1490 1488 1485 1481 1476 1470 1466 1462 1458 1453 1449 1446 1443 1438 1434 1430 1425 1420 1416 1413 1411 1408 1405 1403 1400 1397 1395 1392 1390
1487 1491 1494 1496 1497 1497 1496 1495 1494 1493 1492 1491 1489 1487 1485 1483 1480 1476 1471 1465 1460 1455 1452 1448 1444 1440 1436 1432 1428 1423 1417 1413 1408 1405 1401 1398 1395 1392 1389 1386 1383 1381 1378
1485 1489 1491 1493 1494 1494 1493 1492 1491 1490 1489 1487 1486 1483 1481 1478 1474 1471 1467 1461 1454 1448 1447 1444 1440 1435 1430 1425 1421 1415 1410 1406 1401 1397 1393 1389 1385 1381 1378 1375 1372 1369 1367
1483 1486 1489 1490 1491 1491 1490 1489 1488 1487 1485 1483 1481 1479 1476 1472 1469 1465 1461 1457 1453 1443 1436 1435 1433 1429 1425 1419 1414 1409 1404 1399 1394 1389 1384 1380 1376 1371 1367 1364 1361 1358 1355
1481 1484 1486 1487 1488 1487 1487 1486 1485 1483 1482 1479 1476 1473 1470 1466 1462 1459 1455 1451 1447 1441 1432 1427 1425 1422 1417 1412 1407 1402 1397 1391 1385 1380 1376 1371 1366 1362 1357 1353 1350 1346 1343
1479 1481 1483 1484 1484 1484 1483 1482 1481 1479 1477 1474 1471 1467 1464 1460 1456 1452 1449 1445 1441 1436 1427 1419 1418 1414 1409 1404 1399 1395 1389 1383 1377 1372 1367 1361 1356 1351 1346 1342 1338 1335 1331
1477 1479 1480 1481 1481 1481 1480 1478 1477 1474 1472 1469 1465 1461 1458 1454 1450 1446 1442 1438 1435 1430 1424 1414 1409 1406 1402 1397 1392 1387 1381 1376 1369 1363 1357 1351 1346 1341 1335 1331 1327 1323 1319
1474 1476 1477 1478 1478 1477 1476 1474 1472 1469 1466 1463 1459 1455 1452 1448 1444 1441 1437 1433 1429 1424 1419 1411 1403 1399 1394 1390 1385 1379 1374 1368 1361 1355 1348 1342 1336 1331 1325 1320 1315 1311 1307
1472 1474 1474 1475 1474 1473 1472 1469 1467 1464 1461 1457 1454 1450 1446 1442 1438 1435 1431 1427 1423 1419 1414 1407 1399 1393 1388 1383 1379 1372 1365 1360 1353 1347 1340 1334 1328 1321 1315 1309 1304 1299 1294
1470 1471 1472 1472 1471 1469 1467 1464 1461 1459 1455 1452 1448 1444 1440 1436 1432 1429 1426 1422 1418 1413 1407 1401 1395 1388 1383 1378 1373 1367 1359 1352 1345 1341 1333 1325 1320 1312 1305 1299 1293 1288 1283
1468 1469 1469 1468 1467 1465 1463 1460 1457 1453 1450 1446 1442 1438 1434 1431 1427 1423 1420 1415 1412 1407 1401 1396 1390 1384 1378 1373 1367 1361 1354 1346 1337 1334 1327 1317 1312 1303 1296 1290 1283 1278 1273
1466 1466 1466 1465 1463 1461 1458 1455 1451 1448 1444 1440 1436 1432 1428 1425 1421 1416 1412 1408 1405 1401 1397 1392 1384 1378 1373 1368 1362 1355 1348 1341 1332 1326 1320 1308 1302 1294 1287 1280 1274 1268 1262
1464 1464 1463 1461 1459 1456 1453 1450 1446 1442 1438 1435 1431 1427 1423 1419 1415 1411 1406 1401 1397 1393 1389 1384 1378 1372 1366 1361 1356 1350 1342 1333 1324 1319 1315 1305 1295 1287 1278 1270 1263 1257 1252
1461 1460 1459 1457 1454 1452 1448 1445 1440 1436 1433 1429 1426 1422 1418 1414 1409 1405 1400 1394 1389 1384 1380 1375 1370 1364 1359 1354 1349 1342 1335 1328 1318 1310 1307 1299 1288 1279 1268 1260 1253 1248 1243
1458 1457 1455 1453 1450 1447 1444 1440 1435 1432 1428 1424 1421 1417 1413 1408 1404 1399 1395 1389 1382 1377 1372 1366 1362 1356 1351 1345 1341 1336 1330 1323 1314 1304 1297 1292 1283 1276 1261 1250 1246 1241 1234